カタログに戻る

CZ-6A R/B

運用中PO
NORAD 62237·ROCKET BODY·🇨🇳 China

打ち上げ Dec 5, 2024 から Taiyuan Satellite Launch Center

Loading…

次のパス (今後24時間)

TLE

最新Source: Space-Track

元期: Sep 14, 2026, 21:02 UTC

1 62237U 24232A   26257.87684812  .00000221  00000-0  46952-4 0  9994
2 62237  89.0435   4.8669 0100060  57.3438 303.7374 14.51922452142437

AllMySatでCZ-6A R/Bをリアルタイム追跡

Download on the App Store